• Join FlightAware (Why Join?)
  • Login
  • US Flag 
12:49AM EDT


 

Airport Tracker/Info


-or-


 

Live Flight TrackerFlight Track Log ✈ DAL6231 ✈ 14-Apr-2013 ✈ KLGA - CYHZ

Flight Track Log - Related Links

Times and Time Zones

All times are in EDT time to prevent confusion due to time zone crossing. See the DAL6231 flight status page for this flight to view local times or setup timezone preferences in your user account.

Time Position Orientation Groundspeed Altitude Reporting Facility
EDT Latitude Longitude Course Direction KTS MPH feet Rate Location/Type
09:09PM 40.8000 -73.8667 37° Northeast 151 174 900  Level New York TRACON
09:10PM 40.8333 -73.8333 37° Northeast 207 238 3,000 2,220 Climbing New York TRACON
09:11PM 40.9000 -73.8667 339° North 259 298 5,400 3,000 Climbing New York TRACON
09:12PM 40.9833 -73.8500 North 263 303 9,400 2,340 Climbing New York TRACON
09:15PM 41.0811 -73.6378 59° Northeast 348 400 12,900 1,200 Climbing Boston Center
09:16PM 41.1406 -73.5369 52° Northeast 369 425 13,200 1,500 Climbing Boston Center
09:17PM 41.2167 -73.4142 50° Northeast 376 433 15,900 1,920 Climbing Boston Center
09:18PM 41.2800 -73.3075 52° Northeast 389 448 17,100 1,440 Climbing Boston Center
09:19PM 41.3497 -73.1617 57° Northeast 414 476 18,800 1,680 Climbing Boston Center
09:20PM 41.4067 -73.0406 58° Northeast 424 488 20,500 1,620 Climbing Boston Center
09:21PM 41.4742 -72.9028 57° Northeast 430 495 22,100 1,560 Climbing Boston Center
09:22PM 41.5414 -72.7617 57° Northeast 435 501 23,600 1,380 Climbing Boston Center
09:23PM 41.6042 -72.6206 59° Northeast 435 501 25,000 1,440 Climbing Boston Center
09:24PM 41.6750 -72.4761 57° Northeast 448 516 26,500 1,500 Climbing Boston Center
09:25PM 41.7586 -72.3511 48° Northeast 453 521 28,100 1,380 Climbing Boston Center
09:26PM 41.8417 -72.2256 48° Northeast 448 516 29,300 960 Climbing Boston Center
09:27PM 41.9247 -72.0997 48° Northeast 448 516 30,000 600 Climbing Boston Center
09:28PM 42.0139 -71.9594 49° Northeast 458 527 30,600 540 Climbing Boston Center
09:29PM 42.1028 -71.8244 48° Northeast 471 542 31,200 540 Climbing Boston Center
09:30PM 42.1958 -71.6864 48° Northeast 483 556 31,700 540 Climbing Boston Center
09:31PM 42.2925 -71.5419 48° Northeast 499 574 32,300 600 Climbing Boston Center
09:32PM 42.3872 -71.3944 49° Northeast 505 581 33,000 600 Climbing Boston Center
09:33PM 42.4775 -71.2464 50° Northeast 510 587 33,600 540 Climbing Boston Center
09:34PM 42.5758 -71.0953 49° Northeast 521 600 34,100 420 Climbing Boston Center
09:35PM 42.6719 -70.9406 50° Northeast 521 600 34,500 600 Climbing Boston Center
09:36PM 42.7961 -70.7422 49° Northeast 526 605 35,500 900 Climbing Boston Center
09:37PM 42.8919 -70.5922 49° Northeast 526 605 36,500 600 Climbing Boston Center
09:38PM 43.0014 -70.4158 50° Northeast 520 598 36,900 -300 Climbing Boston Center
09:39PM 43.0883 -70.2708 51° Northeast 505 581 35,900 -1,020 Descending Boston Center
09:40PM 43.1711 -70.1311 51° Northeast 483 556 35,000 -600 Descending Boston Center
09:41PM 43.2478 -70.0058 50° Northeast 483 556 34,800 -600 Descending Boston Center
09:42PM 43.3361 -69.8594 50° Northeast 483 556 33,800 -960 Descending Boston Center
09:43PM 43.4244 -69.7156 50° Northeast 489 563 33,000 -420 Descending Boston Center
09:44PM 43.5147 -69.5683 50° Northeast 489 563 33,000  Level Boston Center
09:45PM 43.5986 -69.4239 51° Northeast 489 563 33,000  Level Boston Center
09:46PM 43.6825 -69.2847 50° Northeast 489 563 33,000  Level Boston Center
09:47PM 43.7681 -69.1450 50° Northeast 484 557 33,000  Level Boston Center
09:48PM 43.8533 -68.9964 51° Northeast 484 557 33,000  Level Boston Center
09:49PM 43.9406 -68.8500 50° Northeast 489 563 33,000  Level Boston Center
09:50PM 44.0297 -68.7031 50° Northeast 489 563 33,000  Level Boston Center
09:51PM 44.1164 -68.5500 52° Northeast 494 568 33,000  Level Boston Center
09:52PM 44.2028 -68.3967 52° Northeast 494 568 33,000  Level Boston Center
09:53PM 44.2892 -68.2486 51° Northeast 494 568 33,000  Level Boston Center
09:54PM 44.3753 -68.0972 51° Northeast 489 563 33,000  Level Boston Center
09:55PM 44.4611 -67.9453 52° Northeast 489 563 33,000  Level Boston Center
09:56PM 44.5167 -67.8167 59° Northeast 490 564 33,000  Level Moncton Center
09:57PM 44.6000 -67.6833 49° Northeast 490 564 33,000  Level Moncton Center
09:57PM 44.6306 -67.6494 38° Northeast 489 563 33,000  Level Boston Center
09:58PM 44.7136 -67.4936 53° Northeast 489 563 33,000  Level Boston Center
09:59PM 44.7667 -67.3667 59° Northeast 490 564 33,000  Level Moncton Center
10:00PM 44.8500 -67.2000 55° Northeast 490 564 33,000  Level Moncton Center
10:01PM 44.8833 -67.0167 76° East 500 575 33,000  Level Moncton Center
10:02PM 44.9000 -66.8333 83° East 510 587 33,000  Level Moncton Center
10:03PM 44.9000 -66.6167 90° East 510 587 33,000 -60 Level Moncton Center
10:04PM 44.9000 -66.4333 90° East 500 575 32,900 -420 Descending Moncton Center
10:05PM 44.9000 -66.2167 90° East 500 575 32,200 -720 Descending Moncton Center
10:06PM 44.9167 -66.0333 83° East 510 587 31,500 -1,200 Descending Moncton Center
10:07PM 44.9167 -65.8167 90° East 510 587 29,900 -1,800 Descending Moncton Center
10:08PM 44.9167 -65.6333 90° East 500 575 27,900 -2,400 Descending Moncton Center
10:09PM 44.9167 -65.4333 90° East 460 529 25,200 -2,580 Descending Moncton Center
10:10PM 44.9167 -65.2667 90° East 430 495 22,800 -2,340 Descending Moncton Center
10:11PM 44.9167 -65.1333 90° East 410 472 20,600 -2,040 Descending Moncton Center
10:12PM 44.9167 -64.9667 90° East 400 460 18,800 -1,800 Descending Moncton Center
10:13PM 44.9167 -64.8167 90° East 390 449 17,100 -1,560 Descending Moncton Center
10:14PM 44.9167 -64.6833 90° East 370 426 15,700 -1,500 Descending Moncton Center
10:15PM 44.9167 -64.5167 90° East 360 414 14,100 -1,560 Descending Moncton Center
10:16PM 44.9167 -64.4000 90° East 350 403 12,600 -1,500 Descending Moncton Center
10:17PM 44.9167 -64.2500 90° East 330 380 11,100 -1,500 Descending Moncton Center
10:18PM 44.9167 -64.1667 90° East 310 357 9,700 -1,500 Descending Moncton Center
10:19PM 44.9167 -64.0500 90° East 290 334 8,100 -1,560 Descending Moncton Center
10:20PM 44.9333 -63.9167 80° East 280 322 6,600 -1,500 Descending Moncton Center
10:21PM 44.9500 -63.8333 74° East 270 311 5,100 -1,500 Descending Moncton Center
10:22PM 44.9667 -63.7333 77° East 260 299 3,600 -1,320 Descending Moncton Center
10:23PM 44.9833 -63.6167 79° East 260 299 2,500 -600 Descending Moncton Center
10:24PM 45.0000 -63.5500 71° East 230 265 2,400  Descending Moncton Center
10:25PM 45.0333 -63.4667 60° Northeast 220 253 2,500  Climbing Moncton Center
10:26PM 45.0333 -63.3833 90° East 210 242 2,400 -60 Descending Moncton Center
10:27PM 44.9833 -63.3833 180° South 180 207 2,400  Level Moncton Center
10:28PM 44.9500 -63.4000 199° South 170 196 2,400 -360 Level Moncton Center
10:29PM 44.9167 -63.4500 227° Southwest 140 161 1,700 -780 Descending Moncton Center
10:30PM 44.8833 -63.4833 215° Southwest 130 150 900 -840 Descending Moncton Center